Wind_Speed
23 24 24 25 25 25 25 26 26 25 24 23 24 25 26 26 27 28 29 29 29 30 30 30 30 31 31 32 32 32 32 33 33 33 33 34 34 34
22 22 23 23 23 24 24 25 26 25 24 24 25 25 25 26 27 29 29 30 30 29 30 30 31 31 31 32 32 33 33 33 34 34 34 35 35 35
20 21 21 22 22 23 24 24 25 25 25 24 25 27 26 26 27 28 29 29 30 30 30 30 30 31 31 32 33 34 34 34 34 34 34 34 34 35
19 20 20 21 21 22 22 24 25 24 24 25 26 27 27 27 27 27 28 29 29 29 30 30 30 31 32 33 34 34 34 35 35 35 35 35 35 35
18 18 19 20 22 22 22 23 23 23 23 23 24 25 25 26 26 26 26 27 28 29 29 30 31 32 33 34 34 34 35 35 36 36 37 36 36 36
16 17 19 20 21 21 22 22 23 23 24 24 24 24 25 26 26 26 26 27 27 29 30 30 31 32 33 34 35 35 35 35 35 36 37 36 36 35
16 17 18 19 20 20 21 22 23 23 24 23 23 24 24 25 25 26 27 27 28 28 28 29 30 31 32 32 33 34 35 35 35 35 36 36 36 35
18 18 19 19 19 20 20 21 21 22 23 24 24 24 24 24 24 25 26 26 27 28 28 29 30 30 31 32 33 33 33 35 36 36 36 36 36 36
19 20 20 19 19 20 21 21 21 21 22 23 23 23 23 24 24 24 25 25 26 27 28 28 29 30 31 32 32 32 32 33 34 34 35 34 34 34
19 19 20 20 21 21 21 21 20 20 20 20 20 21 22 23 23 23 23 25 25 26 27 28 29 29 30 30 31 31 31 31 32 33 33 33 34 34
19 19 19 20 19 19 19 18 18 18 18 18 19 19 20 21 21 22 22 24 24 25 26 26 26 27 27 28 29 31 31 32 32 33 33 33 34 34
19 19 19 19 18 18 17 17 16 16 16 16 18 19 20 20 21 22 22 23 23 23 24 25 26 26 26 27 28 29 30 31 31 32 33 33 33 33
18 18 18 18 18 17 17 16 16 16 16 17 17 18 19 19 20 21 22 22 23 23 23 24 25 25 25 25 26 27 28 29 30 31 32 32 33 33
17 18 18 18 18 17 17 16 15 15 16 16 17 18 19 19 19 20 20 21 22 22 23 23 23 24 24 25 26 26 27 27 28 29 30 31 31 32
17 17 17 18 17 17 16 16 16 16 17 17 18 19 19 19 19 20 20 20 21 22 22 23 23 24 24 25 26 27 27 27 27 28 28 29 29 30
17 18 18 18 18 17 17 17 17 18 18 18 18 19 19 19 19 20 20 21 21 21 22 22 23 24 25 25 26 26 26 26 27 28 27 28 28 28
18 18 18 18 18 18 18 18 18 18 18 18 19 19 19 19 20 20 20 21 21 21 22 23 24 24 25 26 26 26 26 27 27 27 27 28 28 28
18 19 18 18 18 18 18 18 18 19 19 18 18 18 19 19 19 20 20 21 22 22 23 24 24 25 25 25 25 26 26 27 27 26 27 28 29 29
20 20 20 19 18 19 19 19 19 20 19 20 19 19 19 19 20 20 21 22 22 23 24 24 24 24 24 24 24 25 26 27 27 26 27 28 28 29
20 21 21 21 21 20 20 20 20 21 21 21 21 20 20 20 21 22 22 22 22 23 23 24 24 24 24 24 24 25 26 27 27 28 28 29 29 30
21 21 22 21 21 21 22 22 22 22 22 22 22 22 22 22 22 22 23 23 23 23 23 23 24 24 24 25 25 25 26 27 27 28 29 30 30 31
21 22 22 22 22 22 22 23 23 23 23 23 23 23 24 24 23 23 24 24 24 24 23 23 24 24 25 25 25 25 26 27 28 28 28 29 31 31
22 22 22 22 22 22 22 22 23 23 23 23 23 23 24 25 25 24 24 24 24 24 24 24 24 25 25 24 24 24 25 26 27 27 27 27 28 30
Wind_Direction
280 278 276 274 272 270 270 269 268 266 265 265 265 266 263 260 259 259 257 257 256 255 253 252 252 252 252 252 252 252 251 251 251 252 252 252 252 251
284 281 279 278 274 271 271 269 268 267 265 265 266 267 267 265 262 259 257 256 256 255 254 253 253 253 253 253 253 253 253 252 252 253 252 253 253 252
288 284 281 279 276 273 273 272 271 270 268 266 267 266 269 267 264 260 257 257 257 256 256 255 255 255 255 255 255 254 254 253 253 253 253 253 253 253
291 286 284 282 278 277 276 275 274 271 269 268 267 267 268 267 265 263 259 256 257 258 257 256 256 257 257 257 255 253 253 253 253 254 253 253 254 254
293 290 286 283 280 278 277 277 275 272 271 269 268 268 267 266 264 263 261 260 259 260 259 259 259 258 258 257 255 254 253 253 253 254 253 253 254 255
297 293 290 287 284 280 280 280 277 273 272 272 270 268 266 265 264 263 261 262 262 261 262 263 262 261 260 256 255 255 254 255 254 253 253 253 254 255
303 299 295 293 289 287 286 283 279 276 273 274 272 269 267 264 264 263 263 262 262 263 263 263 262 263 261 259 257 257 256 255 255 254 253 254 254 254
301 302 302 299 296 292 289 288 285 279 275 276 275 272 271 270 267 266 265 263 263 263 263 263 264 263 262 260 259 259 258 257 256 254 254 254 254 253
300 303 304 300 300 296 292 290 287 284 279 279 276 273 271 270 269 269 268 266 265 266 267 266 265 263 263 261 259 258 257 257 254 254 254 254 253 253
304 306 304 300 299 297 295 294 291 288 284 281 277 275 273 270 269 268 268 269 268 267 268 267 265 264 264 262 259 257 257 256 254 254 255 255 255 254
308 310 311 308 305 302 300 298 296 293 287 283 279 277 276 273 270 269 272 273 272 271 270 269 266 265 264 262 260 258 258 256 255 255 255 255 255 254
312 315 316 315 311 306 301 299 297 296 290 285 283 280 280 278 275 274 274 275 274 273 272 271 270 267 265 264 262 261 259 258 257 256 256 256 256 256
317 317 318 318 316 310 304 302 302 300 297 292 289 286 285 284 281 278 277 276 277 276 274 274 273 271 268 265 264 262 262 260 257 256 257 256 255 255
320 319 317 318 318 317 314 311 306 303 301 298 295 291 289 286 286 284 280 279 279 279 278 277 276 274 272 269 268 267 265 263 261 258 258 258 257 255
326 324 321 320 319 319 316 312 310 308 306 303 299 296 293 290 287 285 284 284 283 281 280 279 277 275 273 271 270 269 267 265 263 260 260 259 258 256
329 327 324 322 320 318 317 315 312 309 308 306 302 299 296 292 289 288 287 287 285 284 282 281 279 278 276 273 273 270 267 266 265 262 260 260 259 257
328 327 326 325 323 318 316 315 313 310 309 306 304 302 299 296 293 291 288 286 287 286 285 284 282 280 277 275 273 271 267 264 264 263 261 261 260 259
331 329 328 326 324 323 321 319 316 314 312 310 308 306 303 300 297 294 291 289 287 286 286 286 285 282 278 275 273 270 266 263 262 262 261 260 259 258
332 331 331 328 326 324 322 320 318 316 315 312 309 307 305 302 300 298 296 293 290 289 288 286 285 284 282 278 275 272 268 263 263 262 259 259 259 259
334 333 332 330 327 325 323 323 321 318 315 312 310 308 304 301 299 298 297 295 294 293 292 289 286 284 281 279 277 274 271 267 265 264 262 262 261 261
334 332 330 328 327 326 324 322 321 318 315 314 311 307 305 301 299 298 298 298 296 296 295 293 290 287 283 280 278 276 273 270 268 267 265 263 263 263
336 335 333 331 330 328 326 325 323 321 317 315 312 309 307 304 302 301 301 300 298 298 296 295 293 290 287 283 281 279 276 273 271 269 269 268 266 266
340 340 339 337 336 335 332 330 327 324 322 319 316 313 310 307 304 303 302 302 300 299 299 297 294 292 290 287 284 282 279 277 274 272 271 271 268 266
Height
5725 5724 5723 5723 5723 5723 5723 5723 5724 5725 5725 5726 5726 5727 5727 5728 5729 5731 5732 5734 5735 5736 5738 5740 5743 5745 5747 5750 5752 5754 5757 5759 5761 5763 5765 5767 5769 5771
5719 5718 5717 5717 5717 5717 5717 5717 5717 5718 5718 5719 5719 5719 5720 5720 5721 5722 5724 5725 5727 5728 5730 5732 5734 5737 5739 5741 5743 5746 5748 5750 5752 5754 5756 5758 5760 5762
5713 5712 5711 5711 5711 5711 5711 5711 5711 5711 5712 5712 5712 5712 5712 5713 5713 5714 5715 5717 5719 5720 5722 5724 5726 5728 5730 5732 5734 5736 5738 5741 5743 5745 5747 5749 5751 5753
5708 5707 5706 5705 5705 5705 5705 5705 5704 5704 5705 5705 5705 5705 5705 5705 5706 5706 5708 5709 5711 5712 5714 5716 5717 5719 5721 5723 5725 5727 5729 5731 5733 5735 5738 5740 5742 5743
5703 5702 5701 5701 5700 5699 5699 5698 5698 5697 5697 5698 5698 5698 5698 5698 5698 5699 5700 5701 5702 5704 5705 5707 5709 5710 5712 5713 5715 5717 5719 5721 5723 5725 5728 5730 5732 5734
5699 5698 5696 5695 5694 5693 5692 5691 5691 5691 5691 5690 5691 5690 5690 5690 5691 5691 5693 5693 5695 5696 5697 5698 5700 5701 5702 5704 5706 5707 5709 5711 5713 5715 5717 5720 5722 5724
5695 5694 5692 5691 5689 5688 5687 5686 5685 5684 5684 5684 5683 5683 5683 5683 5683 5684 5685 5686 5687 5688 5689 5690 5691 5692 5693 5694 5696 5697 5699 5701 5703 5705 5707 5710 5712 5714
5692 5690 5688 5686 5684 5683 5682 5680 5679 5678 5677 5677 5677 5676 5676 5676 5676 5676 5677 5678 5679 5680 5680 5681 5682 5683 5683 5685 5686 5687 5689 5691 5693 5695 5697 5699 5701 5704
5688 5686 5684 5682 5680 5678 5676 5675 5673 5672 5671 5670 5670 5669 5669 5669 5669 5669 5670 5670 5671 5671 5672 5673 5673 5674 5674 5675 5676 5678 5679 5680 5682 5684 5687 5689 5691 5693
5684 5681 5679 5677 5675 5673 5671 5669 5667 5666 5665 5664 5663 5663 5662 5662 5662 5662 5662 5663 5663 5663 5663 5664 5664 5665 5665 5666 5667 5668 5669 5671 5672 5674 5676 5679 5681 5683
5679 5677 5674 5672 5670 5668 5666 5664 5662 5661 5659 5658 5658 5657 5656 5656 5656 5656 5655 5656 5656 5656 5655 5656 5656 5656 5657 5657 5658 5659 5660 5661 5663 5664 5666 5668 5670 5672
5675 5673 5670 5668 5665 5663 5661 5659 5657 5656 5655 5654 5653 5652 5651 5650 5649 5649 5649 5649 5648 5648 5648 5648 5648 5648 5648 5649 5649 5649 5650 5652 5653 5655 5656 5658 5660 5662
5672 5669 5666 5664 5661 5659 5656 5654 5653 5651 5650 5649 5648 5647 5646 5645 5644 5643 5642 5642 5641 5641 5640 5640 5639 5639 5640 5640 5640 5640 5641 5642 5643 5645 5646 5648 5650 5652
5668 5665 5663 5660 5657 5655 5652 5650 5648 5647 5645 5644 5643 5641 5640 5639 5638 5637 5636 5635 5634 5634 5633 5632 5631 5631 5631 5631 5632 5632 5632 5633 5634 5635 5637 5638 5640 5641
5665 5662 5659 5657 5654 5651 5649 5646 5644 5642 5641 5639 5637 5636 5635 5633 5632 5631 5629 5628 5628 5626 5625 5625 5624 5623 5623 5623 5623 5623 5623 5624 5624 5626 5627 5628 5630 5631
5662 5659 5656 5653 5651 5648 5645 5643 5640 5638 5636 5634 5632 5630 5629 5627 5626 5624 5623 5622 5621 5620 5619 5617 5616 5615 5614 5614 5614 5614 5614 5615 5616 5617 5617 5619 5620 5622
5659 5656 5653 5650 5647 5644 5642 5639 5636 5634 5632 5629 5627 5625 5623 5621 5620 5618 5616 5615 5614 5613 5612 5610 5608 5607 5606 5605 5605 5605 5605 5605 5606 5607 5608 5610 5611 5613
5656 5653 5649 5646 5643 5640 5637 5634 5632 5629 5626 5624 5622 5619 5617 5615 5613 5611 5610 5609 5607 5606 5604 5602 5601 5599 5598 5597 5596 5596 5596 5597 5597 5598 5599 5601 5602 5603
5652 5649 5645 5642 5639 5636 5633 5630 5627 5624 5621 5619 5616 5614 5612 5610 5607 5605 5603 5601 5600 5598 5596 5594 5592 5591 5590 5589 5588 5587 5587 5588 5588 5589 5590 5591 5592 5594
5649 5646 5642 5638 5635 5632 5628 5625 5622 5619 5616 5613 5611 5608 5606 5604 5601 5599 5597 5594 5592 5591 5589 5586 5584 5583 5581 5580 5580 5579 5578 5578 5579 5580 5580 5581 5582 5584
5646 5642 5638 5634 5630 5627 5624 5621 5617 5614 5611 5608 5605 5602 5600 5597 5595 5592 5590 5587 5585 5583 5581 5579 5576 5574 5573 5572 5571 5570 5569 5569 5569 5570 5570 5571 5572 5573
5642 5638 5634 5630 5626 5623 5619 5616 5612 5609 5605 5602 5599 5596 5593 5590 5588 5585 5583 5580 5578 5575 5573 5571 5568 5566 5565 5563 5562 5561 5561 5560 5560 5560 5560 5561 5561 5562
5639 5635 5631 5626 5623 5619 5615 5611 5607 5603 5600 5596 5593 5590 5587 5583 5581 5578 5575 5573 5570 5568 5565 5563 5561 5558 5557 5555 5554 5553 5552 5551 5551 5551 5551 5550 5551 5551